Location: Narrabri
(30.3170°S, 149.7830°E)
Time: 16:57:18
(UTC+10:00)

Hubble Space Telescope - Visible Passes

Search period start: 25 June 2017 00:00
Search period end: 05 July 2017 00:00
Orbit: 538 x 541 km, 28.5° (Epoch: 24 June)

Date Brightness Start Highest point End Pass type
(mag) Time Alt. Az. Time Alt. Az. Time Alt. Az.
25 Jun 1.5 19:05:58 10° WNW 19:09:24 47° NNW 19:09:24 47° NNW visible
26 Jun 1.0 18:55:50 10° WNW 18:59:55 58° N 18:59:56 58° N visible
27 Jun 0.9 18:45:43 10° WNW 18:49:50 63° N 18:50:27 55° NE visible
28 Jun 0.9 18:35:38 10° WNW 18:39:46 67° N 18:41:00 42° ENE visible
29 Jun 0.9 18:25:33 10° W 18:29:42 69° N 18:31:33 31° ENE visible
29 Jun 4.1 20:06:46 10° W 20:06:56 11° W 20:06:56 11° W visible
30 Jun 0.9 18:15:29 10° W 18:19:38 69° N 18:22:10 22° ENE visible
30 Jun 3.7 19:56:45 10° W 19:57:32 15° W 19:57:32 15° W visible
01 Jul 1.0 18:05:25 10° W 18:09:33 67° N 18:12:50 16° ENE visible
01 Jul 3.4 19:46:45 10° W 19:48:13 19° WNW 19:48:13 19° WNW visible
02 Jul 1.1 17:55:21 10° W 17:59:29 63° N 18:03:34 10° ENE visible
02 Jul 3.0 19:36:48 10° W 19:38:58 24° WNW 19:38:58 24° WNW visible
03 Jul 1.3 17:45:18 10° W 17:49:24 57° N 17:53:30 10° ENE visible
03 Jul 2.7 19:26:53 10° WNW 19:29:49 25° NNW 19:29:49 25° NNW visible
04 Jul 1.6 17:35:14 10° W 17:39:19 51° NNW 17:43:22 10° ENE visible
04 Jul 2.8 19:17:03 10° WNW 19:20:12 21° NNW 19:20:48 20° N visible
